Location: Newark
(43.4100°N, 74.9600°W)
Time: 08:27:02
(UTC+00:00)

Envisat - Visible Passes

Search period start: 20 September 2019 00:00
Search period end: 30 September 2019 00:00
Orbit: 764 x 766 km, 98.1° (Epoch: 20 September)

Date Brightness Start Highest point End Pass type
(mag) Time Alt. Az. Time Alt. Az. Time Alt. Az.
21 Sep 5.9 00:26:21 10° SW 00:29:42 17° W 00:33:03 10° NW visible
21 Sep 4.7 23:47:56 10° SSW 23:52:37 37° W 23:57:21 10° NNW visible
24 Sep 5.6 00:14:26 10° SW 00:18:19 22° W 00:22:14 10° NW visible
24 Sep 4.2 23:36:26 10° S 23:41:19 47° W 23:46:14 10° NNW visible
26 Sep 6.1 00:42:01 10° WSW 00:44:07 12° W 00:46:15 10° WNW visible
27 Sep 5.2 00:02:40 10° SSW 00:06:58 27° W 00:11:18 10° NW visible
27 Sep 3.7 23:25:01 10° S 23:30:01 60° W 23:35:04 10° NNW visible
29 Sep 5.9 00:29:40 10° SW 00:32:44 16° W 00:35:49 10° NW visible
